[[{"header":{"parameterUnit":"m.s-1","parameterCategory":1,"la1":30.2991,"la2":30.254,"lo1":-89.0895,"lo2":-89.0444,"dy":0.0017,"dx":0.0017,"nx":28,"ny":28,"refTime":"2023-07-21T03:00:00:Z","depth":0,"parameterNumber":2,"parameterNumberName":"U-component_of_WINDS"},"data":[0,0,0,0,0,0,0,0,0,0,0,0,0,0,0,0,0,0,0,0,0,0,0,0,0,0,0,0,0,0,0,0,0,0,0,0,0,0,0,0,0,0,0,0,0,0,0,0,0,0,0,0,0,0,0,0,0,0,2.7194,2.7194,0,2.7221,2.7222,2.7222,2.7163,2.7161,2.7159,2.7157,2.7188,2.7191,2.7193,0,0,0,0,0,0,0,0,0,0,0,0,0,2.709,2.7092,2.7194,2.7194,2.7194,2.7221,2.7222,2.7222,2.7163,2.7161,2.7158,2.7156,2.7187,2.719,2.7193,0,0,0,0,0,0,0,0,0,0,0,0,0,2.7128,2.7093,2.7194,2.7168,2.7166,2.7221,2.7222,2.7222,2.7164,2.7161,2.7158,2.7155,2.7186,2.719,2.7194,2.7276,0,0,2.7206,2.7208,0,0,0,0,0,0,0,0,2.7126,2.7132,2.7172,2.717,2.7168,2.7186,2.7196,2.724,2.7164,2.7165,2.7157,2.7154,2.719,2.7193,2.7205,2.7277,2.7279,2.7206,2.7209,2.721,2.7211,0,0,0,0,0,0,0,2.7123,2.713,2.7205,2.7172,2.717,2.7155,2.7158,2.7204,2.7193,2.7164,2.716,2.7164,2.7188,2.7201,2.7205,2.7279,2.7206,2.721,2.7212,2.7214,2.7416,2.7419,0,0,0,0,0,0,2.7124,2.7129,2.7204,2.7206,2.7139,2.716,2.7162,2.7183,2.7192,2.7191,2.7167,2.7161,2.7196,2.7201,2.7206,2.7299,2.721,2.7214,2.7216,2.7413,2.7417,2.742,0,0,0,0,0,0,2.7122,2.7131,2.7203,2.7166,2.7174,2.7164,2.7188,2.7185,2.7198,2.7194,2.7192,2.7182,2.7194,2.72,2.7258,2.73,2.7216,2.7219,2.741,2.7414,2.7419,2.7489,0,0,0,0,0,0,2.7119,2.7131,2.7162,2.7167,2.7176,2.7254,2.7191,2.7188,2.7204,2.7198,2.7208,2.7207,2.7192,2.7252,2.7262,2.7304,2.7222,2.7406,2.7412,2.7417,2.7483,2.7496,2.7506,0,0,0,0,0,2.7116,2.7182,2.7164,2.7173,2.7215,2.7257,2.7262,2.7243,2.7208,2.7239,2.7236,2.7206,2.7294,2.7259,2.7269,2.7313,2.7403,2.741,2.7417,2.7478,2.7493,2.7506,0,0,0,0,0,0,2.7184,2.7183,2.7162,2.7232,2.7245,2.7247,2.7285,2.7261,2.7284,2.7277,2.7253,2.7256,2.7317,2.7321,2.7282,2.739,2.7343,2.7352,2.7386,2.74,2.7412,2.7408,2.7226,0,0,0,0,0,2.7207,2.7241,2.7238,2.73,2.7307,2.7295,2.7313,2.7297,2.731,2.7315,2.7316,2.733,2.736,2.7381,2.7409,2.7484,2.7483,2.7519,2.753,2.754,2.7547,2.7584,2.7599,2.7443,2.7442,2.7442,0,0,2.7256,2.7259,2.7282,2.7314,2.7322,2.7357,2.73,2.7341,2.7366,2.7321,2.7374,2.7376,2.7389,2.7455,2.7484,2.746,2.7591,2.7549,2.7556,2.7559,2.7592,2.7607,2.762,2.7447,2.7446,2.7446,0,0,2.7361,2.7368,2.7419,2.7427,2.7439,2.743,2.7442,2.7447,2.7445,2.7498,2.7464,2.7494,2.7548,2.7558,2.757,2.7676,2.7648,2.7686,2.7746,2.7782,2.7794,2.7805,2.7839,2.7853,2.7694,2.7694,2.7694,0,2.742,2.7471,2.7448,2.7489,2.7503,2.7463,2.7513,2.7523,2.7544,2.7554,2.7527,2.759,2.7597,2.7662,2.7688,2.77,2.7712,2.7684,2.7794,2.7804,2.7814,2.7847,2.786,2.7698,2.7698,2.7697,2.7697,0,2.7541,2.7576,2.7616,2.7634,2.7653,2.7699,2.7683,2.7705,2.7687,2.768,2.7733,2.7739,2.7766,2.7781,2.7765,2.7843,2.7827,2.7798,2.7749,2.7833,2.7864,2.7877,2.7704,2.7703,2.7701,2.77,0,0,2.7691,2.7694,2.7708,2.7715,2.7724,2.7751,2.7794,2.7818,2.7836,2.7852,2.7886,2.7931,2.7902,2.7916,2.79,2.7932,2.8012,2.7898,2.7898,2.7916,2.8095,2.8115,2.813,2.7994,2.7996,2.7998,2.8093,0,2.7792,2.7865,2.7844,2.7917,2.7948,2.7909,2.7946,2.7955,2.795,2.7976,2.7971,2.8001,2.7963,2.797,2.8,2.7996,2.8047,2.7989,2.8024,2.8026,2.8019,2.8147,2.8169,2.8258,2.8105,2.8107,2.8108,0,2.792,2.7938,2.8013,2.8013,2.8025,2.8059,2.8078,2.8103,2.8112,2.8106,2.812,2.8097,2.8139,2.8091,2.8146,2.8107,2.8121,2.8121,2.8124,2.8125,2.8071,2.8148,2.8286,2.8298,2.8127,2.8126,2.8124,0,2.8018,2.8061,2.811,2.8117,2.812,2.8143,2.8146,2.8152,2.8167,2.8184,2.8193,2.8216,2.8228,2.8245,2.8229,2.8196,2.8286,2.8237,2.8281,2.8281,2.83,2.8299,2.8439,2.8313,2.8313,2.8313,2.8313,0,2.8132,2.8178,2.8153,2.8183,2.8234,2.821,2.8261,2.8259,2.8264,2.8292,2.8261,2.8289,2.8266,2.8292,2.828,2.8326,2.8332,2.8328,2.8323,2.8329,2.8329,2.8336,2.8328,2.8316,2.8316,2.8315,2.8314,0,2.8249,2.8234,2.8284,2.8281,2.8282,2.8319,2.8316,2.8344,2.8336,2.8372,2.8379,2.8367,2.8395,2.838,2.8411,2.8402,2.8461,2.845,2.8457,2.8453,2.8496,2.8491,2.8644,2.8661,2.8527,2.8528,2.8529,0,2.8321,2.8355,2.8355,2.8371,2.8375,2.8402,2.8416,2.8394,2.841,2.8421,2.8446,2.8471,2.849,2.8536,2.853,2.8552,2.8539,2.8591,2.8543,2.8546,2.8536,2.8533,2.8535,2.8601,2.8602,2.8603,2.8605,0,2.845,2.844,2.8461,2.8479,2.8496,2.8509,2.852,2.8536,2.8513,2.8533,2.856,2.8574,2.8603,2.8627,2.8645,2.8648,2.8622,2.862,2.8631,2.8635,2.8637,2.8633,2.8481,2.8616,2.8615,2.8614,2.8614,2.8613,2.8545,2.8572,2.8575,2.8598,2.8604,2.8614,2.8638,2.8632,2.8654,2.8674,2.866,2.8691,2.8697,2.8719,2.8724,2.8748,2.8727,2.8744,2.8747,2.8751,2.8755,2.8635,2.8752,2.8752,2.8751,2.8751,2.8751,0,2.8669,2.8668,2.869,2.8705,2.8723,2.8696,2.8706,2.8723,2.875,2.8757,2.8775,2.8805,2.8828,2.8823,2.8843,2.8863,2.8852,2.8869,2.8866,2.8866,2.8774,2.8761,2.8878,2.8878,2.8878,2.8878,2.8878,2.8878,2.8736,2.8779,2.8769,2.8814,2.8814,2.8843,2.885,2.8859,2.8864,2.8898,2.8916,2.8912,2.8913,2.8933,2.8952,2.895,2.8958,2.8979,2.8973,2.8886,2.8873,2.8861,2.8849,2.8982,2.8982,2.9062,2.9063,2.9063]},{"header":{"parameterUnit":"m.s-1","parameterCategory":1,"la1":30.2991,"la2":30.254,"lo1":-89.0895,"lo2":-89.0444,"dy":0.0017,"dx":0.0017,"nx":28,"ny":28,"refTime":"2023-07-21T03:00:00:Z","depth":0,"parameterNumber":3,"parameterNumberName":"V-component_of_WINDS"},"data":[0,0,0,0,0,0,0,0,0,0,0,0,0,0,0,0,0,0,0,0,0,0,0,0,0,0,0,0,0,0,0,0,0,0,0,0,0,0,0,0,0,0,0,0,0,0,0,0,0,0,0,0,0,0,0,0,0,0,4.5104,4.5105,0,4.5187,4.5188,4.5189,4.5144,4.5142,4.514,4.5138,4.5217,4.5221,4.5225,0,0,0,0,0,0,0,0,0,0,0,0,0,4.4902,4.4906,4.5104,4.5105,4.5106,4.5187,4.5188,4.5189,4.5145,4.5142,4.5139,4.5137,4.5215,4.522,4.5225,0,0,0,0,0,0,0,0,0,0,0,0,0,4.4987,4.4907,4.5104,4.5094,4.5094,4.5186,4.5188,4.5189,4.5145,4.5142,4.5139,4.5136,4.5214,4.522,4.5226,4.5331,0,0,4.5245,4.5248,0,0,0,0,0,0,0,0,4.4983,4.4995,4.5094,4.5095,4.5095,4.5152,4.5145,4.5236,4.5146,4.5126,4.5138,4.5134,4.5198,4.5205,4.5227,4.5335,4.5338,4.5246,4.5249,4.5252,4.5254,0,0,0,0,0,0,0,4.4977,4.4991,4.5136,4.5096,4.5096,4.5083,4.5092,4.5162,4.5179,4.5127,4.5124,4.5135,4.5197,4.5222,4.5229,4.5339,4.5245,4.5251,4.5255,4.5257,4.5535,4.5538,0,0,0,0,0,0,4.4972,4.4986,4.5134,4.5139,4.503,4.509,4.5099,4.5137,4.5178,4.5181,4.5138,4.5133,4.5213,4.5222,4.5232,4.5356,4.5252,4.5258,4.5261,4.5531,4.5536,4.554,0,0,0,0,0,0,4.4968,4.4986,4.513,4.5062,4.5079,4.5097,4.5139,4.514,4.5165,4.5186,4.5188,4.516,4.521,4.5223,4.5307,4.5358,4.5261,4.5266,4.5527,4.5533,4.5538,4.5607,0,0,0,0,0,0,4.4962,4.4985,4.5026,4.5063,4.5083,4.5206,4.5143,4.5144,4.5177,4.5171,4.5208,4.5211,4.5209,4.5298,4.5313,4.5365,4.5271,4.5522,4.5529,4.5536,4.56,4.5614,4.5626,0,0,0,0,0,4.4955,4.5041,4.5028,4.5046,4.5136,4.5209,4.5221,4.5218,4.5181,4.5222,4.5235,4.521,4.5351,4.5307,4.5323,4.5378,4.5519,4.5527,4.5535,4.5594,4.5611,4.5626,0,0,0,0,0,0,4.5008,4.5046,4.5032,4.5133,4.5169,4.5202,4.5253,4.5236,4.5282,4.5274,4.5267,4.5276,4.5363,4.5379,4.5329,4.5481,4.5429,4.5441,4.5468,4.5484,4.5497,4.5491,4.5276,0,0,0,0,0,4.5031,4.509,4.5119,4.5205,4.5224,4.5236,4.5268,4.5263,4.5299,4.5313,4.5332,4.5366,4.5418,4.5452,4.5501,4.5602,4.5609,4.5648,4.5661,4.5672,4.5682,4.5735,4.5753,4.5566,4.5566,4.5566,0,0,4.508,4.5108,4.5145,4.5217,4.5244,4.5302,4.5249,4.5313,4.5356,4.5322,4.5403,4.5418,4.5455,4.5548,4.559,4.5564,4.5735,4.5682,4.5691,4.5695,4.5746,4.5763,4.5779,4.5572,4.5571,4.557,0,0,4.5199,4.5227,4.5301,4.533,4.5372,4.5379,4.5397,4.5433,4.5443,4.5524,4.5499,4.5549,4.5639,4.5666,4.5691,4.582,4.5798,4.5836,4.5904,4.5956,4.5971,4.5984,4.6028,4.6045,4.5846,4.5847,4.5847,0,4.5253,4.5343,4.5341,4.5408,4.5439,4.5413,4.5487,4.5514,4.5569,4.559,4.5561,4.5673,4.5696,4.5794,4.5826,4.5848,4.5866,4.5832,4.5969,4.5982,4.5994,4.6037,4.6054,4.5851,4.585,4.585,4.585,0,4.5407,4.547,4.5524,4.558,4.5618,4.5688,4.5695,4.5733,4.5724,4.5734,4.5816,4.5843,4.5897,4.592,4.5912,4.6017,4.5999,4.597,4.5917,4.6016,4.6056,4.6072,4.5857,4.5856,4.5854,4.5853,0,0,4.5561,4.5615,4.5635,4.566,4.5705,4.5752,4.5819,4.5874,4.5906,4.5944,4.6,4.6076,4.6049,4.6078,4.6073,4.6119,4.6218,4.6084,4.6085,4.6107,4.6334,4.6355,4.6374,4.6204,4.6207,4.621,4.633,0,4.5681,4.5803,4.5803,4.5914,4.597,4.5946,4.6005,4.6038,4.6049,4.6096,4.6107,4.6161,4.6122,4.614,4.6184,4.6197,4.6263,4.6188,4.6253,4.6256,4.6244,4.6395,4.6418,4.6531,4.6346,4.6349,4.6351,0,4.5838,4.5884,4.6002,4.6038,4.6061,4.6115,4.6164,4.6211,4.6246,4.625,4.6283,4.6271,4.6338,4.6284,4.6375,4.6323,4.635,4.636,4.6364,4.6369,4.6308,4.6403,4.6567,4.6583,4.6375,4.6373,4.6371,0,4.5937,4.6028,4.611,4.6132,4.6176,4.6214,4.6233,4.6266,4.6298,4.6341,4.6361,4.641,4.6437,4.6474,4.6474,4.6435,4.6566,4.6512,4.6569,4.6569,4.6597,4.6595,4.6766,4.6616,4.6616,4.6616,4.6615,0,4.6071,4.6143,4.6154,4.6205,4.6284,4.6283,4.6361,4.6377,4.6406,4.6457,4.6439,4.6487,4.6485,4.6533,4.6534,4.6608,4.662,4.6624,4.6623,4.6625,4.6625,4.6642,4.6633,4.662,4.6619,4.6618,4.6618,0,4.6194,4.6205,4.6292,4.6327,4.6338,4.6395,4.6424,4.647,4.648,4.6545,4.656,4.6574,4.6629,4.6634,4.6698,4.6698,4.6788,4.6779,4.6776,4.6774,4.6831,4.6825,4.7018,4.7043,4.6878,4.688,4.6881,0,4.6278,4.6334,4.6375,4.641,4.6432,4.6487,4.652,4.6521,4.6556,4.6601,4.6641,4.6696,4.6739,4.6829,4.6843,4.6891,4.6883,4.6947,4.6889,4.689,4.6882,4.6878,4.6883,4.6957,4.6959,4.6961,4.6962,0,4.6426,4.6429,4.6479,4.6531,4.6572,4.6613,4.665,4.6679,4.6683,4.6723,4.6781,4.6815,4.6881,4.6934,4.6982,4.6999,4.6981,4.698,4.6996,4.6998,4.6994,4.6996,4.6805,4.6975,4.6974,4.6973,4.6972,4.6972,4.6532,4.6579,4.6617,4.6673,4.6702,4.6737,4.6783,4.6799,4.6848,4.6903,4.6899,4.6963,4.6996,4.7058,4.708,4.7128,4.7106,4.7129,4.7134,4.714,4.7145,4.6988,4.7136,4.7136,4.7136,4.7135,4.7135,0,4.6678,4.6701,4.6752,4.6807,4.6851,4.6832,4.6873,4.691,4.6967,4.7,4.7044,4.7109,4.7161,4.718,4.723,4.7265,4.7257,4.7278,4.7274,4.7278,4.7162,4.7144,4.7283,4.7283,4.7283,4.7283,4.7282,4.7282,4.6759,4.6838,4.6845,4.6939,4.696,4.7024,4.7049,4.7081,4.7108,4.7183,4.7226,4.7239,4.7266,4.7318,4.7364,4.7368,4.7386,4.741,4.741,4.7302,4.7287,4.7272,4.7254,4.7415,4.7415,4.7522,4.7523,4.7524]}]]